sat.trackr.live / text

‹ back to catalog

GPS BIIF-8 (PRN 03)

NORAD 40294 · 2014-068A

PAYLOAD ACTIVE UNKNOWN

§ Identity

Operator
Country
US
Launch date
2014-10-29
Launch site
AFETR
Launch vehicle
Mass (kg)
RCS (m²)
15.79

Purposes: earth_obs, nav

External: N2YO · Heavens-Above · Gunter

§ Orbital elements

Epoch: 2026-09-12T16:12:44.312832Z

Period
718.00 min
Inclination
57.0452°
Eccentricity
0.0067058
Mean motion
2.00556735 rev/d
Perigee alt
20,004.7 km
Apogee alt
20,360.9 km
Semi-major
26,561.0 km
B*
0.0000e+0
RAAN
27.5919°
Arg perigee
73.7835°
Mean anomaly
286.9478°
Rev number
8,696

§ Raw data

GPS BIIF-8  (PRN 03)1 40294U 14068A   26255.67551288 -.00000092  00000+0  00000+0 0  99902 40294  57.0452  27.5919 0067058  73.7835 286.9478  2.00556735 86962

JSON: /api/v1/satellites/40294 · /tle

For live sub-satellite position, see the globe view (requires WebGL).

§ Visibility from observer

Set your observer location to see the next 7 days of passes ≥ 10°. The values pass through the URL so the page stays shareable.

No JS? Fill the form by hand. The geolocation button needs JavaScript.